Starlink 34441

operational
NORAD ID: 64430 Int'l Des: 2025-129 Owner: SPXS Country: US Constellation: starlink
LEOCIRCULAR

Über Starlink 34441

Beschreibung wird geladen...

Live-Position

3D-Globus wird geladen...

Nächste Überflüge

Höhenverlauf

Altitude vs Time

uPlot chart will show altitude changes over time

Zweizeiliger Elementsatz

1 64430U 25129U 25343.14316774 .00002615 00000-0 22685-3 0 9996
2 64430 70.0019 302.7845 0003047 276.0477 84.0335 14.98334866 27725
Epoch: 9. Dez. 2025 • Age: 6 hours

Aktueller Status

Höhe 594.1 km
Geschwindigkeit 7.56 km/s
Subsatellitenpunkt -65.05°S, 30°E
Startdatum 17. Juni 2025
Alter 0.4 years
Typ internet

Technische Details

Klassifizierung Payload
Masse 575.00 kg
Trockenmasse 530.00 kg
Gesamtmasse 575.00 kg
Länge 0.30 m
Durchmesser 4.10 m
Spannweite 29.00 m
Form Box + pan
Hersteller SPXS
Bus-Typ Starlink V2MO
Phasenstatus In Orbit
Besitzer/Staat SPXS/US

Große Konstellationen

Loading constellations...